******** Week 367 almanac for PRN-1 ******** ID: 1 Health: 0 Eccentricity: 0.001702785492 Time of Applicability(s): 147456 Orbital Inclination(rad): 0.9575359747 Rate of Right Ascen(r/s): -8.297488481e-09 SQRT(A) (m 1/2): 5153.564453 Right Ascen at Week(rad): 2.260056664 Argument of Perigee(rad): 0.1648291569 Mean Anom(rad): 2.340370446 Af0(s): 0.0002321316895 Af1(s/s): -7.275958e-12 week: 367 ******** Week 367 almanac for PRN-2 ******** ID: 2 Health: 0 Eccentricity: 0.01682329178 Time of Applicability(s): 147456 Orbital Inclination(rad): 0.9626053018 Rate of Right Ascen(r/s): -8.206056101e-09 SQRT(A) (m 1/2): 5153.714355 Right Ascen at Week(rad): 2.097683899 Argument of Perigee(rad): -0.7804557945 Mean Anom(rad): -2.433831296 Af0(s): 6.556966553e-05 Af1(s/s): 7.275958e-12 week: 367 ******** Week 367 almanac for PRN-3 ******** ID: 3 Health: 0 Eccentricity: 0.006717205048 Time of Applicability(s): 147456 Orbital Inclination(rad): 0.9942616319 Rate of Right Ascen(r/s): -7.554600394e-09 SQRT(A) (m 1/2): 5153.56543 Right Ascen at Week(rad): -3.034567534 Argument of Perigee(rad): 1.209645718 Mean Anom(rad): 0.2801585963 Af0(s): 0.0003919106445 Af1(s/s): -1.455192e-11 week: 367 ******** Week 367 almanac for PRN-4 ******** ID: 4 Health: 0 Eccentricity: 0.003714084625 Time of Applicability(s): 147456 Orbital Inclination(rad): 0.9708983854 Rate of Right Ascen(r/s): -7.623174678e-09 SQRT(A) (m 1/2): 5153.664062 Right Ascen at Week(rad): -1.965271322 Argument of Perigee(rad): -2.872513475 Mean Anom(rad): -3.053313484 Af0(s): 4.295943603e-05 Af1(s/s): 0 week: 367 ******** Week 367 almanac for PRN-5 ******** ID: 5 Health: 0 Eccentricity: 0.005505084991 Time of Applicability(s): 147456 Orbital Inclination(rad): 0.9807434262 Rate of Right Ascen(r/s): -7.703178011e-09 SQRT(A) (m 1/2): 5153.691406 Right Ascen at Week(rad): -3.094919342 Argument of Perigee(rad): 1.421861998 Mean Anom(rad): -2.390072397 Af0(s): -0.0001831428589 Af1(s/s): 0 week: 367 ******** Week 367 almanac for PRN-6 ******** ID: 6 Health: 0 Eccentricity: 0.003774642944 Time of Applicability(s): 147456 Orbital Inclination(rad): 0.9863400592 Rate of Right Ascen(r/s): -8.011762293e-09 SQRT(A) (m 1/2): 5153.619141 Right Ascen at Week(rad): 2.211941499 Argument of Perigee(rad): -0.5331268588 Mean Anom(rad): 1.561892423 Af0(s): -0.0004815978882 Af1(s/s): 3.637979e-12 week: 367 ******** Week 367 almanac for PRN-7 ******** ID: 7 Health: 0 Eccentricity: 0.02076816559 Time of Applicability(s): 147456 Orbital Inclination(rad): 0.9507708797 Rate of Right Ascen(r/s): -7.977475151e-09 SQRT(A) (m 1/2): 5153.542969 Right Ascen at Week(rad): -0.9565950636 Argument of Perigee(rad): -1.975851145 Mean Anom(rad): 0.7307542177 Af0(s): -0.0001386760742 Af1(s/s): -3.637979e-12 week: 367 ******** Week 367 almanac for PRN-8 ******** ID: 8 Health: 0 Eccentricity: 0.01159286499 Time of Applicability(s): 147456 Orbital Inclination(rad): 0.9428972439 Rate of Right Ascen(r/s): -8.023191341e-09 SQRT(A) (m 1/2): 5153.660156 Right Ascen at Week(rad): 1.089124487 Argument of Perigee(rad): 0.5386602001 Mean Anom(rad): -2.750099486 Af0(s): 0.0003617636719 Af1(s/s): -7.275958e-12 week: 367 ******** Week 367 almanac for PRN-9 ******** ID: 9 Health: 0 Eccentricity: 0.003364086151 Time of Applicability(s): 147456 Orbital Inclination(rad): 0.9651519496 Rate of Right Ascen(r/s): -7.657461821e-09 SQRT(A) (m 1/2): 5153.701172 Right Ascen at Week(rad): -2.029856182 Argument of Perigee(rad): 2.046182067 Mean Anom(rad): -2.144981141 Af0(s): 0.0005991710815 Af1(s/s): -3.637979e-12 week: 367 ******** Week 367 almanac for PRN-10 ******** ID: 10 Health: 0 Eccentricity: 0.0109372139 Time of Applicability(s): 147456 Orbital Inclination(rad): 0.9937762708 Rate of Right Ascen(r/s): -7.543171346e-09 SQRT(A) (m 1/2): 5153.61377 Right Ascen at Week(rad): -3.037074859 Argument of Perigee(rad): -2.257159104 Mean Anom(rad): -0.7139748048 Af0(s): -0.0004650170532 Af1(s/s): 0 week: 367 ******** Week 367 almanac for PRN-11 ******** ID: 11 Health: 0 Eccentricity: 0.002237796783 Time of Applicability(s): 147456 Orbital Inclination(rad): 0.9632224894 Rate of Right Ascen(r/s): -8.240343243e-09 SQRT(A) (m 1/2): 5153.547852 Right Ascen at Week(rad): 2.229656431 Argument of Perigee(rad): -2.331236594 Mean Anom(rad): 2.73294594 Af0(s): -0.0002894109375 Af1(s/s): 1.455192e-11 week: 367 ******** Week 367 almanac for PRN-12 ******** ID: 12 Health: 0 Eccentricity: 0.008885860443 Time of Applicability(s): 147456 Orbital Inclination(rad): 0.9594234901 Rate of Right Ascen(r/s): -7.634603726e-09 SQRT(A) (m 1/2): 5153.697266 Right Ascen at Week(rad): 0.161267595 Argument of Perigee(rad): 1.574952606 Mean Anom(rad): 0.02069413487 Af0(s): -0.0004800905395 Af1(s/s): 0 week: 367 ******** Week 367 almanac for PRN-13 ******** ID: 13 Health: 0 Eccentricity: 0.01016044617 Time of Applicability(s): 147456 Orbital Inclination(rad): 0.976363192 Rate of Right Ascen(r/s): -7.611745631e-09 SQRT(A) (m 1/2): 5153.622559 Right Ascen at Week(rad): -1.854092169 Argument of Perigee(rad): 0.993595609 Mean Anom(rad): -2.973107186 Af0(s): 0.0005366161133 Af1(s/s): 0 week: 367 ******** Week 367 almanac for PRN-14 ******** ID: 14 Health: 0 Eccentricity: 0.006994247436 Time of Applicability(s): 147456 Orbital Inclination(rad): 0.9427474411 Rate of Right Ascen(r/s): -7.840326581e-09 SQRT(A) (m 1/2): 5153.603516 Right Ascen at Week(rad): 0.1058866192 Argument of Perigee(rad): -2.725031483 Mean Anom(rad): -0.1094594162 Af0(s): 0.0005878659668 Af1(s/s): 0 week: 367 ******** Week 367 almanac for PRN-15 ******** ID: 15 Health: 0 Eccentricity: 0.01668262482 Time of Applicability(s): 147456 Orbital Inclination(rad): 0.943220818 Rate of Right Ascen(r/s): -7.897471818e-09 SQRT(A) (m 1/2): 5153.666016 Right Ascen at Week(rad): -2.175090382 Argument of Perigee(rad): 1.510030315 Mean Anom(rad): 2.53943741 Af0(s): 0.0003195579102 Af1(s/s): 3.637979e-12 week: 367 ******** Week 367 almanac for PRN-16 ******** ID: 16 Health: 0 Eccentricity: 0.015001297 Time of Applicability(s): 147456 Orbital Inclination(rad): 0.9585246732 Rate of Right Ascen(r/s): -7.680319916e-09 SQRT(A) (m 1/2): 5153.621582 Right Ascen at Week(rad): 0.1781544915 Argument of Perigee(rad): 0.9331602863 Mean Anom(rad): -1.701554333 Af0(s): 0.0001967089966 Af1(s/s): 7.275958e-12 week: 367 ******** Week 367 almanac for PRN-17 ******** ID: 17 Health: 0 Eccentricity: 0.01258563995 Time of Applicability(s): 147456 Orbital Inclination(rad): 0.9584707442 Rate of Right Ascen(r/s): -7.897471818e-09 SQRT(A) (m 1/2): 5153.576172 Right Ascen at Week(rad): 1.194602894 Argument of Perigee(rad): -1.113688778 Mean Anom(rad): -2.783060973 Af0(s): -9.270194092e-05 Af1(s/s): -7.275958e-12 week: 367 ******** Week 367 almanac for PRN-18 ******** ID: 18 Health: 0 Eccentricity: 0.005877017975 Time of Applicability(s): 147456 Orbital Inclination(rad): 0.9712938649 Rate of Right Ascen(r/s): -8.160339911e-09 SQRT(A) (m 1/2): 5153.581543 Right Ascen at Week(rad): 2.206210418 Argument of Perigee(rad): -2.871443882 Mean Anom(rad): 1.51696244 Af0(s): -0.0002939329834 Af1(s/s): 1.091394e-11 week: 367 ******** Week 367 almanac for PRN-19 ******** ID: 19 Health: 0 Eccentricity: 0.01137590408 Time of Applicability(s): 147456 Orbital Inclination(rad): 0.9576138721 Rate of Right Ascen(r/s): -7.931758961e-09 SQRT(A) (m 1/2): 5153.687012 Right Ascen at Week(rad): 1.238471149 Argument of Perigee(rad): 2.95569935 Mean Anom(rad): -1.026036157 Af0(s): 0.0005516895996 Af1(s/s): 0 week: 367 ******** Week 367 almanac for PRN-20 ******** ID: 20 Health: 0 Eccentricity: 0.002122879028 Time of Applicability(s): 147456 Orbital Inclination(rad): 0.9605440151 Rate of Right Ascen(r/s): -7.748894201e-09 SQRT(A) (m 1/2): 5153.547363 Right Ascen at Week(rad): -2.024491369 Argument of Perigee(rad): -1.892422589 Mean Anom(rad): -0.08449515224 Af0(s): 9.270194092e-05 Af1(s/s): 1.818989e-11 week: 367 ******** Week 367 almanac for PRN-21 ******** ID: 21 Health: 0 Eccentricity: 0.0008502006531 Time of Applicability(s): 147456 Orbital Inclination(rad): 0.9636539215 Rate of Right Ascen(r/s): -7.840326581e-09 SQRT(A) (m 1/2): 5153.748535 Right Ascen at Week(rad): -3.029791072 Argument of Perigee(rad): -0.1765871795 Mean Anom(rad): -0.4152796086 Af0(s): 0.0003278483276 Af1(s/s): 0 week: 367 ******** Week 367 almanac for PRN-22 ******** ID: 22 Health: 0 Eccentricity: 0.01199626923 Time of Applicability(s): 147456 Orbital Inclination(rad): 0.957979391 Rate of Right Ascen(r/s): -7.691748963e-09 SQRT(A) (m 1/2): 5153.571777 Right Ascen at Week(rad): 0.1815145685 Argument of Perigee(rad): -0.9930933951 Mean Anom(rad): -2.134775075 Af0(s): -1.205878906e-05 Af1(s/s): 7.275958e-12 week: 367 ******** Week 367 almanac for PRN-23 ******** ID: 23 Health: 0 Eccentricity: 0.006120204925 Time of Applicability(s): 147456 Orbital Inclination(rad): 0.9887488884 Rate of Right Ascen(r/s): -7.623174678e-09 SQRT(A) (m 1/2): 5153.672852 Right Ascen at Week(rad): -3.069378337 Argument of Perigee(rad): -2.739866456 Mean Anom(rad): 0.3496506225 Af0(s): 0.0005042081177 Af1(s/s): 3.637979e-12 week: 367 ******** Week 367 almanac for PRN-24 ******** ID: 24 Health: 0 Eccentricity: 0.01800918579 Time of Applicability(s): 147456 Orbital Inclination(rad): 0.934747971 Rate of Right Ascen(r/s): -8.171768958e-09 SQRT(A) (m 1/2): 5153.573242 Right Ascen at Week(rad): -1.066001674 Argument of Perigee(rad): 1.141931851 Mean Anom(rad): 1.713000391 Af0(s): -2.110288086e-05 Af1(s/s): 1.818989e-11 week: 367 ******** Week 367 almanac for PRN-25 ******** ID: 25 Health: 0 Eccentricity: 0.01287508011 Time of Applicability(s): 147456 Orbital Inclination(rad): 0.9477808156 Rate of Right Ascen(r/s): -7.794610391e-09 SQRT(A) (m 1/2): 5153.650879 Right Ascen at Week(rad): 0.06694575288 Argument of Perigee(rad): 1.160425757 Mean Anom(rad): -0.08539808868 Af0(s): 0.0003383997681 Af1(s/s): -3.637979e-12 week: 367 ******** Week 367 almanac for PRN-26 ******** ID: 26 Health: 0 Eccentricity: 0.01103115082 Time of Applicability(s): 147456 Orbital Inclination(rad): 0.9285161741 Rate of Right Ascen(r/s): -8.046049436e-09 SQRT(A) (m 1/2): 5153.683594 Right Ascen at Week(rad): -0.008452249125 Argument of Perigee(rad): 0.713050147 Mean Anom(rad): -0.9107479132 Af0(s): -0.00028112052 Af1(s/s): -3.637979e-12 week: 367 ******** Week 367 almanac for PRN-27 ******** ID: 27 Health: 0 Eccentricity: 0.01436662674 Time of Applicability(s): 147456 Orbital Inclination(rad): 0.9519752943 Rate of Right Ascen(r/s): -7.943188008e-09 SQRT(A) (m 1/2): 5153.624023 Right Ascen at Week(rad): 1.121583011 Argument of Perigee(rad): 0.8951616797 Mean Anom(rad): -2.638870149 Af0(s): -9.119459228e-05 Af1(s/s): -1.818989e-11 week: 367 ******** Week 367 almanac for PRN-28 ******** ID: 28 Health: 0 Eccentricity: 0.0004196166992 Time of Applicability(s): 147456 Orbital Inclination(rad): 0.9616705323 Rate of Right Ascen(r/s): -7.874613723e-09 SQRT(A) (m 1/2): 5153.507324 Right Ascen at Week(rad): -0.9817963906 Argument of Perigee(rad): -0.3964995792 Mean Anom(rad): 1.452429262 Af0(s): -0.0004348700806 Af1(s/s): 1.091394e-11 week: 367 ******** Week 367 almanac for PRN-29 ******** ID: 29 Health: 0 Eccentricity: 0.003526687622 Time of Applicability(s): 147456 Orbital Inclination(rad): 0.96112525 Rate of Right Ascen(r/s): -7.908900866e-09 SQRT(A) (m 1/2): 5153.688965 Right Ascen at Week(rad): 1.211472563 Argument of Perigee(rad): 2.763413211 Mean Anom(rad): -2.811189447 Af0(s): -0.0002660470337 Af1(s/s): 7.275958e-12 week: 367 ******** Week 367 almanac for PRN-30 ******** ID: 30 Health: 0 Eccentricity: 0.008210659027 Time of Applicability(s): 147456 Orbital Inclination(rad): 0.9360362752 Rate of Right Ascen(r/s): -8.148910863e-09 SQRT(A) (m 1/2): 5153.663086 Right Ascen at Week(rad): -0.9663086524 Argument of Perigee(rad): -2.285790166 Mean Anom(rad): 0.5004417579 Af0(s): 0.0001537495605 Af1(s/s): 1.455192e-11 week: 367 ******** Week 367 almanac for PRN-31 ******** ID: 31 Health: 0 Eccentricity: 0.01081180573 Time of Applicability(s): 147456 Orbital Inclination(rad): 0.9545219421 Rate of Right Ascen(r/s): -7.954617056e-09 SQRT(A) (m 1/2): 5153.525391 Right Ascen at Week(rad): -0.9321573565 Argument of Perigee(rad): 0.9447033419 Mean Anom(rad): -0.3475346578 Af0(s): -0.0001220952393 Af1(s/s): 3.637979e-12 week: 367 ******** Week 367 almanac for PRN-32 ******** ID: 32 Health: 0 Eccentricity: 0.009377479553 Time of Applicability(s): 147456 Orbital Inclination(rad): 0.96815999 Rate of Right Ascen(r/s): -7.623174678e-09 SQRT(A) (m 1/2): 5153.703613 Right Ascen at Week(rad): -2.01268878 Argument of Perigee(rad): -1.980349349 Mean Anom(rad): -2.093557955 Af0(s): 9.797766113e-06 Af1(s/s): 1.818989e-11 week: 367